Wind_Speed
12 12 13 14 15 16 18 20 21 22 23 24 25 24 25 27 26 25 25 28 25 20 14 12 12 10 10 11 14 19 23 19 12 21 26 22 22 23 24 29 33 29 23
11 11 12 13 15 16 18 20 22 24 24 24 25 30 32 30 31 30 29 29 29 27 26 25 25 16 14 13 11 12 10 8 5 9 16 23 25 24 31 25 27 25 25
10 10 11 13 14 16 18 19 21 22 24 25 28 31 33 34 28 32 30 30 31 29 29 28 30 30 26 19 16 12 12 8 9 7 7 17 14 20 10 15 14 15 19
9 10 11 13 14 14 16 17 20 21 24 26 27 28 31 33 34 28 30 28 27 29 29 31 31 33 34 28 24 18 14 12 13 13 10 11 10 14 21 18 15 18 15
8 10 11 12 12 13 16 18 18 21 23 24 27 26 27 31 33 30 29 31 30 29 32 32 33 27 34 36 34 33 24 21 22 18 18 17 16 18 19 19 9 14 6
8 9 10 12 13 14 15 16 18 20 23 26 26 28 28 28 28 29 29 31 31 32 31 31 33 35 29 33 34 39 43 30 28 24 21 17 23 18 18 16 12 7 4
7 9 11 12 13 13 14 16 18 21 22 25 27 26 29 28 25 25 26 29 32 35 34 34 33 35 32 28 30 32 37 36 35 27 25 25 23 25 19 17 18 12 5
6 8 10 12 13 13 14 16 17 19 21 23 25 27 29 34 28 23 23 26 29 33 38 35 34 36 34 28 27 30 31 32 34 32 30 27 30 32 26 20 19 5 12
7 7 9 10 11 12 14 14 15 16 18 20 23 26 28 34 33 27 21 23 24 28 31 38 37 37 34 29 28 26 25 28 24 24 25 26 28 31 31 26 29 20 9
6 7 8 9 11 12 11 12 13 13 15 16 19 22 27 29 34 33 26 21 23 22 24 28 33 34 32 31 29 26 26 25 25 25 27 27 28 29 31 30 24 21 20
7 7 8 9 11 11 10 10 12 13 14 15 16 19 22 28 29 31 30 26 22 22 24 25 28 29 33 31 30 30 25 22 23 24 25 27 29 30 31 28 26 20 19
8 8 9 9 9 10 10 11 11 10 12 13 15 17 19 20 25 25 27 25 21 21 21 21 23 25 27 31 31 29 27 25 25 25 26 28 28 28 27 25 24 22 15
9 9 9 8 8 9 10 9 10 11 12 12 13 15 16 18 20 22 23 23 21 19 18 19 20 23 24 26 29 30 30 29 27 26 25 25 25 24 23 24 22 22 17
8 7 7 7 8 8 10 12 12 12 11 12 14 14 14 16 19 20 20 19 17 16 16 17 18 20 22 23 25 28 29 27 25 24 23 23 23 24 24 25 23 23 20
8 7 7 7 8 10 11 12 11 14 15 11 13 12 14 15 17 16 16 19 17 15 14 16 19 20 21 23 23 24 25 26 25 24 24 24 24 23 24 24 23 23 21
9 8 6 6 5 6 8 9 11 11 11 14 15 14 11 13 15 16 14 14 18 16 15 17 18 19 20 20 21 21 22 23 23 22 23 23 24 23 24 23 23 23 23
9 8 7 6 5 4 3 3 8 5 7 10 10 12 12 12 16 18 16 13 15 16 17 17 17 18 18 18 18 18 19 19 18 20 20 21 22 22 22 23 22 22 22
10 8 7 6 5 4 3 3 3 2 1 4 7 8 10 12 14 18 18 13 14 17 16 16 16 16 17 17 17 17 17 16 16 17 17 18 20 21 21 22 22 22 24
12 10 8 6 5 5 3 3 2 2 2 3 4 6 10 9 8 13 15 15 14 15 16 15 15 16 16 16 16 16 16 16 16 16 15 16 17 19 19 20 21 21 23
10 10 9 7 6 4 3 2 2 1 1 3 4 7 9 8 10 12 13 13 13 13 14 14 14 14 15 15 15 16 16 16 16 16 16 15 16 17 18 20 21 22 22
11 11 8 7 5 4 3 2 1 1 2 3 3 4 6 7 8 9 10 11 11 12 12 13 13 14 14 14 15 15 16 16 15 16 16 16 16 17 17 18 19 20 21
11 10 9 7 6 4 3 2 2 1 1 1 2 3 6 5 7 7 8 9 10 11 11 12 13 13 13 14 15 15 15 15 15 16 16 16 16 15 16 18 19 20 21
11 10 8 7 6 5 4 3 2 1 1 1 2 3 4 5 6 6 7 8 9 10 11 12 12 12 12 13 12 12 13 14 15 16 17 16 16 14 16 18 19 20 21
10 10 8 7 6 5 4 4 3 2 1 1 2 3 3 4 5 6 7 8 9 10 11 11 11 12 14 13 12 11 12 14 16 16 16 16 15 14 15 16 18 20 21
10 9 8 7 6 5 4 4 4 3 2 1 2 2 3 4 4 6 7 8 9 11 11 12 11 13 13 15 12 12 15 15 17 17 17 14 15 14 13 15 18 20 21
10 9 8 7 6 6 6 5 5 3 3 2 2 2 3 4 5 6 7 8 10 11 12 12 12 13 15 12 12 16 14 15 16 19 13 8 11 11 12 14 17 19 20
Wind_Direction
8 1 4 5 2 360 2 5 3 1 3 9 13 13 16 20 24 28 30 39 49 42 30 8 347 327 301 311 279 265 256 258 256 304 254 271 253 238 233 236 235 252 258
10 7 9 8 11 6 7 10 8 8 12 15 20 24 26 27 33 34 34 40 42 40 35 34 23 9 4 356 343 331 329 324 303 268 285 298 257 249 253 235 246 270 247
14 12 12 15 17 15 14 13 14 13 18 22 27 29 28 29 32 37 41 43 44 43 39 37 32 30 24 14 10 357 346 342 350 304 341 3 322 21 315 271 283 296 280
21 18 18 20 21 20 22 24 24 23 25 27 29 30 31 31 34 34 36 39 42 42 42 40 40 37 33 29 28 24 16 27 19 30 27 42 20 352 30 7 355 1 358
32 27 25 25 26 28 32 32 31 32 32 32 33 33 34 35 33 34 37 39 38 37 37 36 35 41 44 42 40 36 42 50 46 41 45 41 18 27 1 343 329 352 296
45 37 36 32 30 33 35 36 36 36 34 33 37 36 34 33 34 38 42 42 41 37 34 34 32 32 36 40 43 47 48 47 51 54 43 36 26 11 9 337 349 355 345
55 47 45 39 32 34 38 39 37 37 35 34 35 38 37 36 36 39 42 42 42 39 36 33 33 31 32 35 41 45 47 48 54 55 53 39 30 12 8 0 2 2 56
63 54 52 49 38 35 41 44 42 41 38 35 34 36 38 36 35 37 41 44 44 41 38 35 35 32 32 35 38 41 41 43 43 44 46 42 37 31 30 15 4 72 44
72 58 55 54 50 41 42 44 45 46 44 41 38 36 38 37 36 35 41 45 46 44 40 38 35 33 31 36 40 39 40 36 37 42 45 42 38 36 34 33 23 22 19
77 65 63 61 57 53 42 43 44 44 45 43 41 38 40 38 35 37 39 43 44 43 42 40 38 38 36 37 40 35 34 29 28 30 31 32 32 34 35 39 27 26 11
89 84 77 70 64 59 49 44 45 44 43 42 41 41 39 38 35 36 38 40 39 39 37 33 32 35 37 39 40 38 35 30 31 32 30 27 25 25 24 25 27 30 27
104 93 84 76 71 64 58 50 45 38 44 43 39 37 34 33 32 30 34 37 38 41 37 32 30 32 36 37 38 37 35 34 32 31 29 24 20 16 16 16 17 16 28
114 101 91 85 76 66 60 48 50 44 41 42 40 38 35 29 25 24 26 26 28 33 33 31 30 31 32 34 33 34 33 31 28 29 25 19 15 11 13 12 12 11 8
129 118 105 98 86 72 67 55 48 36 43 44 38 34 33 31 25 22 22 20 20 24 24 27 28 30 32 31 30 30 29 28 28 25 21 15 12 13 12 9 6 4 2
146 141 132 116 99 84 70 58 70 58 48 44 29 44 32 28 18 15 19 19 15 5 18 26 26 23 25 24 24 26 25 22 21 19 17 14 11 10 8 7 4 2 359
158 161 151 140 139 130 117 94 76 78 71 58 50 49 48 34 20 16 15 15 15 13 26 25 24 22 20 20 18 16 19 17 13 12 12 10 7 4 2 3 2 2 354
169 158 154 155 148 136 137 139 141 104 85 69 62 48 40 26 20 18 14 10 19 23 29 22 19 16 13 12 12 11 8 10 6 7 8 7 3 359 -0 359 357 358 351
159 153 157 150 143 134 116 97 77 63 127 96 39 40 32 26 21 18 15 21 19 22 20 16 12 9 6 4 4 0 357 357 359 359 1 1 1 355 356 356 353 353 346
157 157 152 148 141 133 124 109 90 76 40 27 26 19 10 3 16 17 20 24 17 13 9 7 3 360 358 355 353 350 348 349 347 348 351 352 355 351 350 350 347 346 339
155 151 153 150 147 146 141 133 107 73 35 20 21 11 359 4 8 9 14 13 10 5 0 355 353 350 348 347 345 344 341 341 343 340 341 343 345 343 344 345 343 342 340
158 158 157 155 155 154 152 139 119 87 37 28 45 34 23 7 4 4 1 1 359 353 349 345 342 341 340 340 339 338 337 335 335 335 335 333 333 333 338 339 338 338 335
161 161 164 162 159 160 153 145 131 103 59 24 17 16 16 7 360 354 353 349 345 341 338 336 334 334 335 333 333 331 330 330 331 331 329 325 323 325 333 335 336 336 335
165 165 164 163 163 157 160 164 163 167 148 14 2 358 356 357 350 344 340 337 333 331 330 330 329 328 329 329 328 325 325 325 324 322 320 318 315 319 326 331 334 333 336
169 171 171 170 175 177 182 185 184 178 165 314 342 346 344 337 330 329 330 327 325 324 325 323 325 323 325 328 326 326 321 317 316 316 315 308 305 310 323 327 332 335 330
174 174 172 178 181 189 186 194 200 202 218 273 307 314 317 317 316 320 321 322 320 323 321 323 320 321 322 325 327 317 316 325 322 317 310 294 293 299 317 329 332 332 332
175 178 179 182 187 195 199 201 203 208 224 242 266 284 298 304 306 311 315 319 318 321 321 320 322 322 325 327 312 318 326 321 329 332 328 288 287 312 322 326 328 333 335
Height
819 818 816 813 809 806 801 796 790 784 777 771 764 756 749 742 736 730 724 718 715 715 715 715 713 710 709 705 703 700 699 699 697 695 687 692 693 696 696 696 700 705 700
821 819 817 814 810 807 803 797 793 787 781 775 768 761 754 747 742 736 731 727 724 722 721 718 715 710 707 705 703 701 698 695 694 693 691 694 689 688 689 690 696 688 703
821 820 818 815 812 809 804 801 796 791 785 779 772 766 760 754 749 744 740 736 733 730 728 724 721 716 712 708 705 703 701 696 693 691 688 688 691 687 686 688 690 691 693
822 821 819 816 814 811 808 804 800 795 790 784 778 773 767 761 756 752 748 743 740 737 734 731 727 724 720 715 710 705 702 699 698 694 697 699 700 697 692 694 692 693 692
822 822 820 818 816 813 809 806 804 800 795 791 786 780 776 770 766 760 755 751 746 743 740 736 734 732 729 725 718 714 710 709 705 707 708 709 711 703 710 707 702 696 698
823 823 821 819 818 815 812 810 807 804 801 797 793 789 784 779 775 769 763 759 755 751 747 745 741 736 734 732 728 724 720 717 716 718 721 720 718 719 713 716 708 699 698
824 823 822 821 820 818 815 813 811 807 805 802 799 795 791 787 782 778 773 768 763 759 755 751 747 744 741 739 737 734 731 731 729 731 731 730 725 724 717 721 711 709 709
825 825 823 822 822 821 818 816 814 811 809 807 803 800 796 791 787 783 780 776 772 768 764 760 757 753 750 746 743 740 740 739 738 737 735 735 732 723 722 720 719 715 712
826 826 825 824 824 824 821 819 818 816 814 812 809 805 801 797 793 788 785 783 780 778 775 771 766 763 760 755 751 750 751 749 748 746 743 742 737 732 727 724 724 722 717
828 827 827 826 826 825 825 823 821 819 817 815 814 811 807 803 799 795 791 789 788 786 784 781 779 775 771 765 760 759 755 755 753 750 748 746 744 740 736 735 736 732 729
828 829 828 828 828 827 827 825 823 821 819 818 817 815 812 809 807 803 800 797 795 793 791 788 786 783 778 774 770 766 765 762 758 755 753 749 746 743 742 743 741 740 738
829 830 830 830 829 829 828 828 825 824 823 821 820 818 817 815 814 811 807 805 803 800 798 796 794 790 786 782 777 775 770 766 763 759 757 755 754 752 751 749 747 745 742
830 831 831 832 831 831 830 829 828 827 826 825 823 823 822 821 819 816 812 810 808 805 803 801 798 794 790 786 784 780 776 773 771 768 766 765 763 761 758 755 752 748 744
830 832 833 833 833 832 831 832 831 830 829 828 827 826 827 826 824 822 818 816 813 809 807 804 801 798 794 792 788 785 782 781 779 778 776 774 771 767 763 759 756 752 749
831 832 833 834 834 835 835 835 836 836 835 833 832 832 830 831 830 828 824 821 818 815 810 806 803 801 798 796 793 791 789 787 785 784 781 779 775 771 768 765 762 758 754
830 832 832 834 835 835 836 838 839 839 838 837 836 835 834 835 833 830 826 824 820 816 813 811 808 806 803 801 800 797 795 793 792 788 786 783 780 776 772 768 766 763 759
827 830 832 834 835 835 835 835 837 840 838 837 838 837 837 836 833 829 827 825 822 819 817 816 814 812 810 807 805 803 801 800 798 795 792 789 786 781 777 774 771 768 764
826 829 832 833 835 835 836 837 837 837 837 838 837 837 837 835 833 831 829 826 824 822 821 820 818 817 814 812 810 808 806 803 801 799 796 794 791 787 783 779 776 773 769
826 829 831 834 835 836 837 837 838 838 839 838 838 838 837 836 835 834 832 830 828 827 826 824 823 821 818 816 814 812 809 806 803 801 798 796 794 791 787 784 780 777 772
826 828 831 833 835 836 837 837 837 838 838 838 839 840 838 837 836 836 835 834 833 831 830 828 826 824 822 819 816 813 810 807 804 802 800 797 795 792 788 785 782 778 774
826 828 830 832 833 835 836 837 838 839 839 839 841 840 839 839 838 838 838 837 836 835 833 831 829 826 824 821 818 815 812 809 806 804 801 799 796 793 790 787 784 780 776
825 828 830 831 833 835 836 837 838 839 840 841 840 840 839 839 839 839 839 838 838 836 834 832 830 827 825 822 819 817 814 811 808 805 803 800 797 793 790 787 784 781 777
824 827 829 831 833 834 836 837 838 839 840 841 840 840 840 840 840 840 840 839 838 837 835 832 830 827 825 822 819 817 814 812 809 807 804 801 797 793 790 787 784 780 777
823 826 828 830 832 834 835 836 838 839 839 840 840 840 840 840 840 840 840 839 837 836 833 831 829 826 823 820 817 815 814 811 808 805 802 799 796 793 790 787 784 781 777
822 825 827 829 831 832 834 835 837 838 838 839 839 839 840 840 840 839 839 838 836 834 832 830 827 824 821 818 816 814 811 808 806 802 799 797 794 792 789 787 784 780 776
821 823 825 827 829 831 832 834 835 836 837 837 838 838 839 839 839 838 837 836 834 832 830 827 824 821 818 816 814 810 808 805 802 799 796 794 792 789 788 786 783 779 775